Location: Vancouver
(49.2500°N, 123.1330°W)
Time: 01:47:28
(UTC-07:00)

A-11 Canister half - Visible Passes

Search period start: 23 May 2015 00:00
Search period end: 02 June 2015 00:00
Orbit: 1527 x 1682 km, 47.3° (Epoch: 21 May)

Date Brightness Start Highest point End Pass type
(mag) Time Alt. Az. Time Alt. Az. Time Alt. Az.
23 May 9.6 01:11:50 27° SSE 01:14:14 31° SE 01:22:16 10° E visible
23 May 9.0 03:10:05 15° SW 03:18:08 66° SSE 03:27:42 10° E visible
24 May 9.7 00:50:40 27° SSE 00:52:45 30° SE 01:00:38 10° E visible
24 May 9.0 02:48:54 16° SW 02:56:36 64° SSE 03:06:08 10° E visible
25 May 9.7 00:29:22 26° SSE 00:31:18 28° SE 00:39:00 10° E visible
25 May 9.0 02:27:36 17° SW 02:35:04 63° SSE 02:44:33 10° E visible
25 May 9.1 04:30:20 10° W 04:39:50 81° S 04:49:39 10° E visible
26 May 9.7 00:07:53 25° SSE 00:09:49 27° SE 00:17:22 10° E visible
26 May 9.0 02:06:05 17° SW 02:13:32 61° SSE 02:22:58 10° E visible
26 May 9.1 04:08:49 10° W 04:18:16 81° S 04:28:04 10° E visible
26 May 9.7 23:46:07 23° SSE 23:48:21 26° SE 23:55:43 10° E visible
27 May 9.0 01:44:16 15° SW 01:52:01 60° SSE 02:01:23 10° ENE visible
27 May 9.0 03:47:16 10° W 03:56:43 81° S 04:06:29 10° E visible
27 May 9.8 23:23:48 20° SSE 23:26:54 24° SE 23:34:03 10° E visible
28 May 9.0 01:21:54 12° SW 01:30:31 58° SSE 01:39:49 10° ENE visible
28 May 9.0 03:25:45 10° W 03:35:10 81° S 03:44:54 10° E visible
28 May 9.8 22:59:47 13° S 23:05:26 23° SE 23:12:23 10° E visible
29 May 9.0 01:00:01 10° SW 01:09:00 57° SSE 01:18:15 10° ENE visible
29 May 9.0 03:04:12 10° W 03:13:37 80° S 03:23:20 10° E visible
29 May 9.8 22:37:35 10° S 22:43:58 22° SE 22:50:43 10° E visible
30 May 9.0 00:38:33 10° SW 00:47:29 55° SSE 00:56:40 10° ENE visible
30 May 8.9 02:42:41 10° W 02:52:04 80° S 03:01:45 10° E visible
30 May 9.9 22:16:23 10° S 22:22:30 21° SE 22:29:01 10° E visible
31 May 9.0 00:17:05 10° SW 00:25:59 53° SSE 00:35:06 10° ENE visible
31 May 8.9 02:21:09 10° WSW 02:30:32 80° S 02:40:10 10° E visible
31 May 9.1 04:26:00 10° W 04:35:23 69° SSW 04:45:03 10° ESE visible
31 May 9.9 21:55:12 10° S 22:01:04 19° SE 22:07:18 10° E visible
31 May 9.0 23:55:38 10° SW 00:04:29 52° SSE 00:13:32 10° ENE visible
01 Jun 8.9 01:59:38 10° WSW 02:08:59 79° S 02:18:36 10° E visible
01 Jun 9.0 04:04:28 10° W 04:13:50 70° SSW 04:23:30 10° ESE visible
01 Jun 9.1 23:34:11 10° SW 23:42:59 50° SSE 23:51:58 10° ENE visible
